Location: Unspecified
(40.5530°N, 74.2920°W)
Time: 14:43:21
(UTC+00:00)

Daily predictions for brighter satellites

Satellite Brightness Start Highest point End
(mag) Time Altitude Azimuth Time Altitude Azimuth Time Altitude Azimuth
Cosmos 2219 4.4 21:52:19 10° NW 21:57:43 49° WSW 22:03:06 10° S
IDEFIX/ARIANE 42P 3.7 21:52:45 10° S 21:57:45 50° W 22:02:48 10° NNW
Cosmos 2279 Rocket 4.1 21:51:33 10° S 21:57:49 88° E 22:04:07 10° N
Cosmos 158 Rocket 3.9 21:55:51 10° NNW 22:00:51 58° ENE 22:05:42 10° SSE
Meteor 2-9 Rocket 4.4 21:57:23 10° N 22:02:40 47° ENE 22:07:48 10° SSE
Cosmos 1980 Rocket 3.5 21:59:40 10° SE 22:03:41 20° E 22:07:44 10° NE
USA 215 3.4 21:58:05 10° ESE 22:04:28 57° NE 22:10:50 10° NW
Cosmos 1271 Rocket 2.7 22:01:51 10° N 22:05:41 88° W 22:09:33 10° S
Cosmos 1025 Rocket 4.5 22:04:15 10° SE 22:07:08 18° E 22:10:02 10° NE
Cosmos 1656 3.8 22:03:23 10° S 22:08:51 60° ESE 22:14:16 10° NNE
Cosmos 2084 4.4 22:06:47 10° S 22:10:28 30° ESE 22:14:00 10° ENE
ISS -1.6 22:08:40 10° WNW 22:11:37 31° SW 22:14:34 10° SSE
NOSS 3-4 (A) 3.9 22:07:39 10° S 22:13:31 46° ESE 22:19:34 10° NE
NOSS 3-4 (C) 3.9 22:07:45 10° S 22:13:37 45° ESE 22:19:38 10° NE
Cosmos 2297 Rocket 2.2 22:08:43 10° NNW 22:14:24 74° ENE 22:20:02 10° SSE
DELTA 2 R/B (1) 3.7 22:10:12 10° W 22:15:46 80° S 22:21:21 10° E
Cosmos 1666 3.0 22:13:51 10° NNW 22:17:35 70° W 22:21:18 10° S
CZ-2C R/B 4.2 22:15:52 10° NNE 22:20:24 45° E 22:24:57 10° S
Cosmos 1536 Rocket 3.5 22:16:31 10° S 22:20:50 73° E 22:25:10 10° NNE
CZ-2C R/B 4.0 22:15:59 10° SSW 22:20:52 41° W 22:25:43 10° NNW
CENTAUR R/B 3.8 22:19:00 10° NNW 22:25:49 32° NE 22:33:05 10° E
Cosmos 1484 Rocket 3.0 22:24:55 10° S 22:28:55 81° WSW 22:32:58 10° NNW
SKYMED 2 4.1 22:33:00 10° NNE 22:37:05 38° E 22:41:08 10° SSE
CSL-04 Debris 4.4 22:32:06 10° S 22:37:29 75° WSW 22:42:53 10° NNW
Atlas Centaur 2 4.4 22:33:56 10° WSW 22:37:52 18° SSW 22:41:17 10° SSE
SMAP 3.3 22:33:15 10° S 22:37:53 75° WSW 22:42:34 10° NNW
METEOR-M 4.1 22:35:51 10° SSE 22:41:04 58° ENE 22:46:19 10° N
FENGYUN 3A 4.1 22:39:42 10° SE 22:44:38 38° ENE 22:49:34 10° N
Meteor 2-4 Rocket 3.9 22:40:03 10° SSW 22:45:26 69° W 22:50:47 10° N
Cosmos 2263 Rocket 3.9 22:44:27 10° NNE 22:46:10 13° NE 22:46:10 13° NE
SL-16 R/B 3.8 22:44:42 10° SE 22:47:42 15° E 22:47:42 15° E
CZ-4 R/B 4.3 22:44:09 10° SSE 22:48:15 67° ENE 22:52:22 10° N
Lacrosse 5 rocket 3.4 22:47:39 10° SE 22:49:35 13° ESE 22:49:37 13° ESE
Gblst 52 Del rocket 4.3 22:44:25 10° NW 22:50:00 64° NNE 22:55:38 12° ESE
IRS-1A Rocket 4.2 22:45:01 10° SSE 22:50:36 85° ENE 22:56:09 10° NNW
Cosmos 2322 Rocket 3.7 22:48:14 10° SE 22:51:06 16° ESE 22:51:06 16° ESE
Cosmos 2278 4.4 22:46:57 10° SW 22:52:31 55° WNW 22:58:08 10° NNE
Cosmos 2369 4.5 22:47:15 10° SW 22:52:46 52° WNW 22:58:21 10° NNE
ALOS 2.5 22:49:29 10° SE 22:53:55 45° ENE 22:58:22 10° N
Ariane Rocket 3.9 22:49:23 10° S 22:54:18 52° W 22:59:15 10° NNW
Meteor 1-28 Rocket 4.1 22:51:19 10° N 22:54:58 49° WNW 22:58:37 10° SSW
SPOT 3 Rocket 3.7 22:53:12 10° SE 22:58:11 50° ENE 23:03:10 10° N
Cosmos 494 Rocket 4.1 22:53:28 10° N 22:58:38 52° ENE 23:03:44 10° SE
Cosmos 2360 4.3 22:53:11 10° S 22:58:43 54° ESE 23:02:42 19° NE
Cosmos 2266 Rocket 4.3 22:52:43 10° NNW 22:58:47 69° W 23:04:57 10° S
USA 116 3.8 22:57:29 10° N 23:00:33 54° WNW 23:03:36 10° SSW
Cosmos 1697 Rocket 2.9 22:59:34 10° SSW 23:05:12 71° WNW 23:10:37 11° NNE
RESURS DK-1 2.6 23:02:08 10° S 23:06:05 47° ESE 23:07:11 37° ENE
Cosmos 1515 3.8 23:03:07 10° SSW 23:06:54 74° W 23:10:36 11° N
Cosmos 1892 Rocket 4.3 23:02:58 10° SSE 23:06:56 32° E 23:06:56 32° E
YAOGAN 1 2.9 23:02:54 10° S 23:07:12 69° WSW 23:11:32 10° NNW
Cosmos 2251 Rocket 3.8 23:02:43 10° N 23:07:44 42° ENE 23:12:41 10° SE
Cosmos 1184 Rocket 3.5 23:06:15 10° SSE 23:08:40 36° SE 23:08:40 36° SE
EO 1 Del DPAF 3.1 23:10:43 25° NNE 23:12:52 79° ESE 23:16:40 10° S
MTI 4.2 23:11:44 21° N 23:13:44 63° WNW 23:16:56 10° SSW
ERS-2 2.0 23:13:52 10° SSE 23:17:32 89° E 23:21:14 10° NNW
S3M 4.1 23:17:08 10° SSE 23:22:58 49° E 23:26:25 24° NNE
SJ 16-02 3.6 23:20:40 10° WSW 23:24:08 22° WNW 23:27:37 10° N
COSMO-SKYMED 1 3.1 23:20:59 11° N 23:25:10 60° WNW 23:29:26 10° SSW
CZ-4 R/B 3.7 23:23:25 10° SSW 23:26:39 25° W 23:29:58 10° NW
PSLV R/B 3.5 23:23:58 10° W 23:26:41 62° W 23:26:41 62° W
Abrixas rocket 4.5 23:32:39 10° NW 23:33:52 18° NNW 23:33:52 18° NNW
FengYun 1-2 T 4.1 23:40:21 10° SSE 23:45:56 71° ENE 23:51:35 10° N
Cosmos 1980 Rocket 2.8 23:41:38 10° SW 23:47:11 55° WNW 23:50:26 25° N
USA 215 4.3 23:41:26 10° SSE 23:47:33 42° SW 23:53:42 10° WNW
Cosmos 1066 Rocket 4.3 23:47:10 10° SSW 23:52:40 72° W 23:55:35 28° N
